YD1OCG-15 Weather Reports


time (UTC)temp
F
wind
direction
speed
knots
gust
knots
rain 1hr
in
rain 24hr
in
rain mn
in
humidity
%
barometer
mb
20260508080723 84 342 9.6 0.0 0.00 0.00 0.00 77 1008.0
20260508073723 84 342 9.6 0.0 0.00 0.00 0.00 79 1009.0
20260508070723 85 331 12.2 0.0 0.00 0.00 0.00 82 1008.0
20260508063723 84 331 12.2 0.0 0.00 0.00 0.00 71 1009.0
20260508060723 86 333 11.3 0.0 0.00 0.00 0.00 73 1009.0
20260508053723 86 335 12.2 0.0 0.00 0.00 0.00 73 1009.0
20260508050723 85 345 9.6 0.0 0.00 0.00 0.00 82 1009.0
20260508043723 85 345 9.6 0.0 0.00 0.00 0.00 73 1009.0
20260508040723 85 2 7.0 0.0 0.00 0.00 0.00 88 1010.0
20260508033723 85 2 7.0 0.0 0.00 0.00 0.00 72 1010.0
20260508030723 84 21 6.1 0.0 0.00 0.00 0.00 88 1011.0
20260508023723 84 21 6.1 0.0 0.00 0.00 0.00 76 1011.0
20260508020723 85 79 4.3 0.0 0.00 0.00 0.00 90 1011.0
20260508013723 86 79 4.3 0.0 0.00 0.00 0.00 80 1012.0
20260508010723 83 124 5.2 0.0 0.00 0.00 0.00 91 1012.0
20260508003723 85 124 5.2 0.0 0.00 0.00 0.00 81 1012.0
20260508000723 82 140 6.1 0.0 0.00 0.00 0.00 88 1012.0
20260507233723 82 138 6.1 0.0 0.00 0.00 0.00 88 1012.0
20260507230724 78 148 7.0 0.0 0.00 0.00 0.00 89 1011.0
20260507223723 78 148 7.0 0.0 0.00 0.00 0.00 90 1011.0
20260507220723 79 146 7.0 0.0 0.00 0.00 0.00 90 1011.0
20260507213723 79 146 7.0 0.0 0.00 0.00 0.00 91 1011.0
20260507210723 79 142 6.1 0.0 0.00 0.00 0.00 93 1011.0
20260507203724 79 142 6.1 0.0 0.00 0.00 0.00 95 1011.0
20260507200723 79 142 5.2 0.0 0.00 0.00 0.00 96 1011.0
20260507193723 79 142 5.2 0.0 0.00 0.00 0.00 95 1011.0
20260507190724 79 141 5.2 0.0 0.00 0.00 0.00 95 1011.0
20260507183723 79 141 5.2 0.0 0.00 0.00 0.00 89 1011.0
20260507180724 80 139 4.3 0.0 0.00 0.00 0.00 92 1012.0
20260507173722 80 143 3.5 0.0 0.00 0.00 0.00 92 1012.0
20260507170723 80 147 3.5 0.0 0.00 0.00 0.00 90 1012.0
20260507163722 81 147 3.5 0.0 0.00 0.00 0.00 89 1012.0
20260507160728 80 162 4.3 0.0 0.00 0.00 0.00 85 1012.0
20260507153724 80 162 4.3 0.0 0.00 0.00 0.00 91 1012.0
20260507150724 80 168 4.3 0.0 0.00 0.00 0.00 90 1012.0
20260507143723 81 168 4.3 0.0 0.00 0.00 0.00 90 1012.0
20260507140723 81 152 4.3 0.0 0.00 0.00 0.00 88 1012.0
20260507133723 82 152 4.3 0.0 0.00 0.00 0.00 90 1012.0
20260507130725 82 130 5.2 0.0 0.00 0.00 0.00 89 1012.0
20260507123723 85 130 5.2 0.0 0.00 0.00 0.00 91 1012.0
20260507120724 83 111 6.1 0.0 0.00 0.00 0.00 89 1011.0
20260507113723 83 124 5.2 0.0 0.00 0.00 0.00 90 1011.0
20260507110724 83 360 0.9 0.0 0.00 0.00 0.00 87 1010.0
20260507103723 83 360 0.9 0.0 0.00 0.00 0.00 88 1010.0
20260507100724 84 322 5.2 0.0 0.00 0.00 0.00 83 1009.0
20260507093724 85 322 5.2 0.0 0.00 0.00 0.00 84 1009.0
20260507090723 85 333 7.0 0.0 0.00 0.00 0.00 78 1009.0
20260507083728 85 333 7.0 0.0 0.00 0.00 0.00 81 1009.0